Weather observations for the past three days for
Unalaska, Unalaska Airport
Imperial (Metric)
Date Time (akdt) Wind (mph) Vis. (mi.) Weather Sky Cond. Temperature (ºF) Relative Humidity Wind Chill (°F) Heat Index (°F) Pressure Precipitation (in)
Air Dwpt 6 hour altimeter (in) sea level (mb) 1 hr 3 hr 6 hr
Max. Min.
16 07:56 E 3 8.00 Overcast OVC006 46 45 96% 30.02 1016.5
16 06:56 NE 7 4.00 Fog/Mist OVC006 46 45 96% 43 30.02 1016.4
16 05:56 Calm 10.00 Overcast BKN004 OVC008 46.9 45 93% 30.02 1016.4
16 04:56 E 6 10.00 Overcast OVC008 46.9 45 93% 45 30.01 1016.2
16 03:56 Calm 10.00 Overcast OVC008 46.9 45 50 46 93% 30.02 1016.6
16 02:56 Calm 10.00 Overcast OVC010 46.9 45 93% 30.01 1016.2
16 01:56 E 6 10.00 Overcast OVC008 46.9 45 93% 45 30.02 1016.3
16 00:56 E 7 10.00 Overcast OVC010 46.9 45 93% 44 30.01 1016.0
15 23:56 E 7 10.00 Fair CLR 46 45 96% 43 30 1015.8
15 22:56 E 10 10.00 Fair CLR 48 45 89% 44 29.98 1015.2
15 21:56 E 10 10.00 Fair CLR 50 45 53.1 50 83% 46 29.97 1014.8
15 20:56 E 10 10.00 Fair CLR 51.1 46 83% 29.97 1014.6
15 19:56 E 12 10.00 Fair CLR 52 46 80% 29.96 1014.4
15 18:56 E 10 10.00 Fair CLR 52 45 77% 29.95 1014.2
15 17:56 E 12 10.00 Light Rain CLR 51.1 45 80% 29.96 1014.3
15 16:56 E 14 10.00 A Few Clouds FEW002 51.1 46 83% 29.96 1014.6
15 15:56 E 14 10.00 Fair CLR 53.1 46 57 52 77% 29.95 1014.0
15 14:56 E 10 10.00 Fair CLR 54 46 75% 29.94 1013.7
15 13:56 E 8 10.00 Fair CLR 55.9 43 62% 29.95 1014.0
15 12:56 E 7 10.00 Fair CLR 57 42.1 58% 29.95 1014.1
15 11:56 S 9 10.00 Fair CLR 55.9 39.9 55% 29.95 1014.1
15 10:56 SW 7 10.00 Fair CLR 55 39 55% 29.95 1013.9
15 09:56 S 9 10.00 Fair CLR 52 37.9 52 48.9 59% 29.94 1013.8
15 08:56 S 8 10.00 Fair CLR 51.1 37.9 61% 29.94 1013.6
15 07:56 S 10 10.00 Fair CLR 48.9 37.9 66% 45 29.93 1013.3
15 06:56 S 10 10.00 Fair CLR 50 39 66% 46 29.92 1013.1
15 05:56 S 10 10.00 A Few Clouds FEW070 50 37.9 63% 46 29.92 1013.0
15 04:56 S 8 10.00 Fair CLR 50 37 61% 47 29.92 1012.9
15 03:56 S 9 10.00 Fair CLR 50 37 55 48.9 61% 47 29.92 1013.2
15 02:56 S 10 10.00 Fair CLR 50 37 61% 46 29.92 1013.0
15 01:56 S 12 10.00 Fair CLR 51.1 37 59% 29.91 1012.9
15 00:56 S 9 10.00 Fair CLR 51.1 36 56% 29.92 1012.9
14 23:56 S 13 G 17 10.00 Fair CLR 52 36 55% 29.91 1012.6
14 22:56 SW 12 10.00 Fair CLR 54 37 53% 29.9 1012.4
14 21:56 SW 13 10.00 Fair CLR 54 39 60.1 54 57% 29.9 1012.2
14 20:56 W 16 G 25 10.00 Fair CLR 55.9 37 49% 29.88 1011.7
14 19:56 SW 17 G 24 10.00 A Few Clouds FEW075 57 36 45% 29.88 1011.6
14 18:56 W 5 10.00 A Few Clouds FEW055 FEW090 57.9 37.9 48% 29.88 1011.9
14 17:56 SW 8 10.00 Partly Cloudy FEW055 SCT090 57.9 37.9 48% 29.89 1012.0
14 16:56 Vrbl 5 10.00 Partly Cloudy FEW055 FEW075 SCT095 59 39.9 49% 29.89 1012.1
14 15:56 S 10 10.00 Partly Cloudy FEW050 FEW075 SCT095 57.9 39.9 59 48.9 51% 29.89 1012.0
14 14:56 S 17 G 23 10.00 Partly Cloudy FEW045 FEW060 SCT085 55.9 41 57% 29.88 1011.7
14 13:56 S 17 G 32 10.00 A Few Clouds FEW040 FEW090 54 39.9 59% 29.88 1011.7
14 12:56 S 21 G 33 10.00 A Few Clouds and Breezy FEW080 55 41 59% 29.87 1011.5
14 11:56 SE 17 G 29 10.00 A Few Clouds FEW085 54 39 57% 29.86 1011.0
14 10:56 SW 15 G 32 10.00 Partly Cloudy SCT090 52 39.9 64% 29.87 1011.4
14 09:56 S 21 G 30 10.00 Mostly Cloudy and Breezy BKN090 48.9 41 48.9 46 74% 43 29.87 1011.3
14 08:56 SW 14 G 24 10.00 Mostly Cloudy BKN085 48.9 39 69% 44 29.89 1012.0
14 07:56 W 15 G 24 10.00 A Few Clouds FEW150 48.9 39 69% 44 29.89 1012.0
14 06:56 SW 22 G 38 10.00 A Few Clouds and Breezy FEW150 46 39.9 79% 39 29.89 1012.0
14 05:56 S 22 G 33 10.00 A Few Clouds and Breezy FEW180 46 39.9 79% 39 29.89 1012.1
14 04:56 SW 23 G 33 10.00 Fair and Breezy CLR 46 41 83% 38 29.91 1012.6
14 03:56 S 22 G 28 10.00 Overcast and Breezy OVC019 45 41 51.1 45 86% 37 29.92 1013.0
14 02:56 SE 13 G 24 10.00 Partly Cloudy SCT019 SCT070 45 41 86% 39 29.93 1013.3
14 01:56 Vrbl 5 10.00 Overcast SCT046 OVC060 48.9 41 74% 48 29.92 1013.0
14 00:56 SW 10 10.00 Overcast OVC060 51.1 41 69% 29.91 1012.7
13 23:56 S 15 10.00 Mostly Cloudy BKN060 48.9 41 74% 44 29.91 1012.6
13 22:56 SW 16 G 23 10.00 Overcast BKN047 OVC060 48.9 41 74% 44 29.9 1012.3
13 21:56 S 16 G 28 10.00 Overcast OVC039 48.9 42.1 52 48.9 77% 44 29.88 1011.8
13 20:56 SW 17 G 25 10.00 Mostly Cloudy BKN033 48.9 42.1 77% 43 29.88 1011.8
13 18:56 NW 16 10.00 Mostly Cloudy BKN034 51.1 41 69% 29.88 1011.6
13 17:56 Vrbl 3 10.00 Mostly Cloudy FEW025 BKN034 BKN044 51.1 39.9 66% 29.88 1011.7
13 16:56 NW 13 G 24 10.00 Mostly Cloudy FEW025 BKN037 52 39 61% 29.87 1011.3
13 15:56 NW 20 10.00 Mostly Cloudy FEW025 BKN037 50 39 51.1 46.9 66% 44 29.86 1010.9
13 14:56 NW 20 10.00 Mostly Cloudy FEW021 BKN035 50 39.9 68% 44 29.85 1010.8
13 13:56 NW 23 G 26 10.00 Mostly Cloudy and Breezy SCT025 BKN033 48.9 39 69% 42 29.84 1010.5
13 12:56 NW 17 G 23 10.00 Mostly Cloudy SCT025 BKN033 48.9 37.9 66% 43 29.83 1010.1
13 11:56 N 13 G 18 10.00 Mostly Cloudy FEW025 BKN031 BKN040 48.9 41 74% 44 29.82 1009.7
13 10:56 S 14 10.00 Overcast FEW025 BKN031 OVC038 46.9 39.9 77% 42 29.81 1009.2
13 09:56 SW 8 10.00 Mostly Cloudy FEW025 BKN034 BKN040 46.9 39 46.9 44.1 74% 44 29.81 1009.5
13 08:56 W 9 10.00 Mostly Cloudy SCT025 BKN038 46 37.9 73% 42 29.79 1008.7
Date Time (akdt) Wind (mph) Vis. (mi.) Weather Sky Cond. Air Dwpt Max. Min. Relative Humidity Wind Chill (°F) Heat Index (°F) altimeter (in) sea level (mb) 1 hr 3 hr 6 hr
6 hour
Temperature (ºF) Pressure Precipitation (in)